EW2142 Gothenburg SE current weather conditions

sailwx.info

Wind from 139

Air temperature 28.3° C
Dewpoint 17.5° C

Last reported at 2020-Aug-11 13:05 UTC.
Time now 2020-Aug-11 13:42 UTC

Location: N 57°48' E 011°60'.
View on Google Maps.

See reports from other nearby stations

  
Tides and Currents Weather Stations Pressure Air Temp Water Temp Dewpoint Dewpoint Depression Visibility Wind Speed Wind Dir Waves Ship Positions
date/time (UTC)wind fromknots sea level pressurealtimeterstation pressurevisibilityair tempwater tempwave heightnotes
2020-Aug-11 13:05 139 28.3
2020-Aug-11 12:55 296 28.9
2020-Aug-11 12:45 181 28.9
2020-Aug-11 12:25 140 27.8
2020-Aug-11 12:20 284 27.2
2020-Aug-11 12:15 276 26.7
2020-Aug-11 12:00 275 25.6
2020-Aug-11 11:55 25.6
2020-Aug-11 11:50 25.6
2020-Aug-11 11:45 25.0
2020-Aug-11 11:35 25.6
2020-Aug-11 11:30 135 25.6
2020-Aug-11 11:25 134 25.6
2020-Aug-11 11:15 129 26.1
2020-Aug-11 11:10 130 26.1
2020-Aug-11 11:05 231 26.1
2020-Aug-11 11:00 219 26.1
2020-Aug-11 10:55 213 25.6
2020-Aug-11 10:45 284 25.0
2020-Aug-11 10:40 24.4
2020-Aug-11 10:35 24.4
2020-Aug-11 10:30 24.4
2020-Aug-11 10:25 159 24.4
2020-Aug-11 10:10 24.4
2020-Aug-11 10:05 24.4
2020-Aug-11 10:00 24.4
2020-Aug-11 09:55 24.4
2020-Aug-11 09:40 22.8
2020-Aug-11 09:30 22.8
2020-Aug-11 09:25 23.3
2020-Aug-11 09:20 23.3
2020-Aug-11 09:15 23.3
2020-Aug-11 09:10 23.3
2020-Aug-11 09:05 134 22.8
2020-Aug-11 08:55 138 22.2
2020-Aug-11 08:50 135 22.2
2020-Aug-11 08:45 134 22.2
2020-Aug-11 08:30 22.2
2020-Aug-11 08:25 22.2
2020-Aug-11 08:20 142 22.2
2020-Aug-11 08:05 152 21.1
2020-Aug-11 07:50 20.6
2020-Aug-11 07:45 127 20.6
2020-Aug-11 07:25 19.4
2020-Aug-11 07:20 19.4
2020-Aug-11 07:15 19.4
2020-Aug-11 07:10 19.4
2020-Aug-11 07:05 19.4
2020-Aug-11 07:00 19.4
2020-Aug-11 06:50 19.4
2020-Aug-11 06:45 19.4
2020-Aug-11 06:30 176 18.9
2020-Aug-11 06:20 148 18.9
2020-Aug-11 06:15 134 19.4
2020-Aug-11 06:10 143 19.4
2020-Aug-11 06:05 160 19.4
2020-Aug-11 06:00 19.4
2020-Aug-11 05:55 18.9
2020-Aug-11 05:40 18.3
2020-Aug-11 05:35 134 18.3
2020-Aug-11 05:30 135 18.3
2020-Aug-11 05:20 142 17.8
2020-Aug-11 05:15 152 17.8
2020-Aug-11 05:10 158 17.8
2020-Aug-11 05:05 158 17.8
2020-Aug-11 04:55 031 17.8
2020-Aug-11 04:45 134 17.8
2020-Aug-11 04:40 134 17.2
2020-Aug-11 04:05 125 17.8
2020-Aug-11 03:45 135 17.8
2020-Aug-11 03:40 134 17.8
2020-Aug-11 03:30 140 17.8
2020-Aug-11 03:25 17.8
2020-Aug-11 03:20 140 17.8
2020-Aug-11 03:15 144 17.8
2020-Aug-11 03:10 132 17.8
2020-Aug-11 03:00 115 17.8
2020-Aug-11 02:50 17.8
2020-Aug-11 02:45 17.8
2020-Aug-11 02:40 102 17.8
2020-Aug-11 02:35 102 17.8
2020-Aug-11 02:25 17.2
2020-Aug-11 02:20 17.2
2020-Aug-11 02:15 17.2
2020-Aug-11 02:05 17.2
2020-Aug-11 02:00 17.2
2020-Aug-11 01:50 17.8
2020-Aug-11 01:45 17.8
2020-Aug-11 01:40 17.8
2020-Aug-11 01:25 17.8
2020-Aug-11 01:20 17.8
2020-Aug-11 01:10 17.8
2020-Aug-11 01:05 096 17.8
2020-Aug-11 01:00 096 17.8
2020-Aug-11 00:50 17.8
2020-Aug-11 00:40 17.8
2020-Aug-11 00:35 096 17.2
2020-Aug-11 00:20 17.2
2020-Aug-11 00:10 17.2
2020-Aug-11 00:05 17.2
2020-Aug-10 23:55 095 17.2
2020-Aug-10 23:40 106 17.2
2020-Aug-10 23:35 16.7
2020-Aug-10 23:25 16.7
2020-Aug-10 23:10 16.1
2020-Aug-10 23:00 16.1
2020-Aug-10 22:55 16.1
2020-Aug-10 22:45 16.1
2020-Aug-10 22:40 16.1
2020-Aug-10 22:35 16.1
2020-Aug-10 22:25 16.1
2020-Aug-10 22:20 16.1
2020-Aug-10 22:15 16.1
2020-Aug-10 22:10 16.7
2020-Aug-10 22:05 16.7
2020-Aug-10 21:55 16.7
2020-Aug-10 21:45 16.7
2020-Aug-10 21:40 17.2
2020-Aug-10 21:35 17.2
2020-Aug-10 21:25 17.2
2020-Aug-10 21:20 17.8
2020-Aug-10 21:05 17.8
2020-Aug-10 20:55 17.8
2020-Aug-10 20:50 17.8
2020-Aug-10 20:45 17.8
2020-Aug-10 20:40 17.8
2020-Aug-10 20:35 17.8
2020-Aug-10 20:20 17.8
2020-Aug-10 20:05 17.8
2020-Aug-10 19:55 18.3
2020-Aug-10 19:50 18.3
2020-Aug-10 19:40 18.9
2020-Aug-10 19:30 18.9
2020-Aug-10 19:25 18.9
2020-Aug-10 19:15 19.4
2020-Aug-10 19:10 20.0
2020-Aug-10 18:30 21.1
2020-Aug-10 18:25 21.7
2020-Aug-10 18:10 22.2
2020-Aug-10 18:05 22.2
2020-Aug-10 17:55 302 22.8
2020-Aug-10 17:50 23.3
2020-Aug-10 17:35 302 23.9
2020-Aug-10 17:25 300 24.4
2020-Aug-10 17:15 284 25.0
2020-Aug-10 17:10 284 25.0
2020-Aug-10 17:05 25.0
2020-Aug-10 17:00 306 25.6
2020-Aug-10 16:55 308 25.6
2020-Aug-10 16:50 009 26.7
2020-Aug-10 16:35 305 26.1
2020-Aug-10 16:30 309 26.7
2020-Aug-10 16:15 308 26.7
2020-Aug-10 16:10 313 27.2
2020-Aug-10 16:05 317 27.8
2020-Aug-10 16:00 315 27.8
2020-Aug-10 15:55 304 27.8
2020-Aug-10 15:50 302 28.3
2020-Aug-10 15:45 085 29.4
2020-Aug-10 15:40 312 28.9
2020-Aug-10 15:35 311 28.3
2020-Aug-10 15:25 28.3
2020-Aug-10 15:15 298 27.8
2020-Aug-10 15:10 305 0 gusting 2 27.2
2020-Aug-10 15:05 306 27.2
2020-Aug-10 15:00 299 27.2
2020-Aug-10 14:35 280 29.4
2020-Aug-10 14:30 283 28.3
2020-Aug-10 14:25 307 27.8
2020-Aug-10 14:20 305 0 gusting 3 27.2
2020-Aug-10 14:05 314 28.3
2020-Aug-10 13:55 312 0 gusting 3 28.3
2020-Aug-10 13:45 074 29.4
2020-Aug-10 13:40 181 29.4
2020-Aug-10 13:30 283 28.9
2020-Aug-10 13:20 321 28.3
2020-Aug-10 13:10 309 0 gusting 2 28.9
2020-Aug-10 13:05 299 29.4
2020-Aug-10 12:45 310 30.0
2020-Aug-10 12:40 304 30.0
2020-Aug-10 12:35 301 0 gusting 2 29.4
2020-Aug-10 12:25 256 30.6
2020-Aug-10 12:20 256 30.6
2020-Aug-10 12:10 113 30.6
2020-Aug-10 11:55 130 30.6
2020-Aug-10 11:40 217 30.6
2020-Aug-10 11:15 147 30.0
2020-Aug-10 11:10 153 29.4
2020-Aug-10 11:05 129 29.4
2020-Aug-10 11:00 112 29.4
2020-Aug-10 10:55 090 28.9
2020-Aug-10 10:45 306 28.9
2020-Aug-10 10:40 28.9
2020-Aug-10 10:35 142 28.9
2020-Aug-10 10:30 124 28.9
2020-Aug-10 10:25 122 28.3
2020-Aug-10 10:20 129 28.3
2020-Aug-10 10:15 126 28.3
2020-Aug-10 10:05 176 27.8
2020-Aug-10 10:00 130 27.8
2020-Aug-10 09:45 126 27.2
2020-Aug-10 09:35 131 26.7
2020-Aug-10 09:30 009 26.7
2020-Aug-10 09:25 010 26.7
2020-Aug-10 09:20 014 26.1
2020-Aug-10 09:05 135 26.1
2020-Aug-10 09:00 26.1
2020-Aug-10 08:55 123 25.6
2020-Aug-10 08:45 140 25.0
2020-Aug-10 08:40 120 24.4
2020-Aug-10 08:35 120 25.0
2020-Aug-10 08:30 24.4
2020-Aug-10 08:25 24.4
2020-Aug-10 08:20 122 23.9
2020-Aug-10 07:50 138 22.2
2020-Aug-10 07:45 132 22.2
2020-Aug-10 07:40 131 21.7
2020-Aug-10 07:25 126 20.6
2020-Aug-10 07:10 18.9
2020-Aug-10 07:05 18.3
2020-Aug-10 07:00 17.2
2020-Aug-10 06:55 16.7
2020-Aug-10 06:50 16.7
2020-Aug-10 06:45 16.1
2020-Aug-10 06:20 14.4
2020-Aug-10 06:10 14.4
2020-Aug-10 06:05 14.4
2020-Aug-10 05:45 13.9
2020-Aug-10 05:40 13.3
2020-Aug-10 05:35 13.3
2020-Aug-10 05:25 12.8
2020-Aug-10 05:20 12.8
2020-Aug-10 05:10 12.8
2020-Aug-10 05:05 12.8
2020-Aug-10 05:00 12.2
2020-Aug-10 04:45 12.2
2020-Aug-10 04:40 12.2
2020-Aug-10 04:35 11.7
2020-Aug-10 04:25 11.7
2020-Aug-10 04:15 11.7
2020-Aug-10 04:10 11.7
2020-Aug-10 04:05 11.7
2020-Aug-10 03:55 11.7
2020-Aug-10 03:50 11.7
2020-Aug-10 03:40 11.7
2020-Aug-10 03:35 11.7
2020-Aug-10 03:30 11.7
2020-Aug-10 03:15 11.7
2020-Aug-10 03:00 11.7
2020-Aug-10 02:55 11.7
2020-Aug-10 02:35 11.7
2020-Aug-10 02:25 12.2
2020-Aug-10 02:15 12.2
2020-Aug-10 02:00 12.2
2020-Aug-10 01:50 12.2
2020-Aug-10 01:30 12.8
2020-Aug-10 01:25 12.8
2020-Aug-10 01:20 12.8
2020-Aug-10 01:15 12.8
2020-Aug-10 01:10 12.8
2020-Aug-10 01:05 12.8
2020-Aug-10 01:00 12.8
2020-Aug-10 00:50 12.8
2020-Aug-10 00:40 12.8
2020-Aug-10 00:35 13.3
2020-Aug-10 00:30 13.3
2020-Aug-10 00:15 13.3
2020-Aug-10 00:05 13.3
2020-Aug-10 00:00 13.3
2020-Aug-09 23:55 13.3
2020-Aug-09 23:50 13.3
2020-Aug-09 23:45 13.3
2020-Aug-09 23:35 13.3
2020-Aug-09 23:30 13.3
2020-Aug-09 23:25 13.3
2020-Aug-09 23:20 13.3
2020-Aug-09 23:10 13.9
2020-Aug-09 23:05 13.9
2020-Aug-09 23:00 13.9
2020-Aug-09 22:55 13.9
2020-Aug-09 22:35 13.9
2020-Aug-09 22:25 14.4
2020-Aug-09 22:20 14.4
2020-Aug-09 22:15 14.4
2020-Aug-09 22:10 14.4
2020-Aug-09 22:00 15.0
2020-Aug-09 21:50 15.0
2020-Aug-09 21:45 15.0
2020-Aug-09 21:40 15.0
2020-Aug-09 21:30 15.0
2020-Aug-09 21:25 15.6
2020-Aug-09 21:15 15.6
2020-Aug-09 21:10 15.6
2020-Aug-09 21:00 15.6
2020-Aug-09 20:55 16.1
2020-Aug-09 20:50 16.1
2020-Aug-09 20:40 16.1
2020-Aug-09 20:25 16.7
2020-Aug-09 20:20 16.7
2020-Aug-09 20:10 17.2
2020-Aug-09 20:00 17.2
2020-Aug-09 19:45 17.8
2020-Aug-09 19:35 18.3
2020-Aug-09 19:30 18.9
2020-Aug-09 19:25 18.9
2020-Aug-09 19:20 18.9
2020-Aug-09 19:15 19.4
2020-Aug-09 19:10 19.4
2020-Aug-09 19:05 19.4
2020-Aug-09 19:00 20.0
2020-Aug-09 18:55 20.0
2020-Aug-09 18:45 20.6
2020-Aug-09 18:40 20.6
2020-Aug-09 18:35 21.1
2020-Aug-09 18:25 21.7
2020-Aug-09 18:20 21.7
2020-Aug-09 18:10 21.7
2020-Aug-09 18:05 22.2
2020-Aug-09 18:00 22.8
2020-Aug-09 17:55 23.3
2020-Aug-09 17:50 23.3
2020-Aug-09 17:40 23.9
2020-Aug-09 17:25 25.0
2020-Aug-09 17:20 25.0
2020-Aug-09 17:10 310 25.6
2020-Aug-09 17:05 310 25.6
2020-Aug-09 16:35 323 27.8
2020-Aug-09 16:30 317 28.3
2020-Aug-09 16:10 308 29.4
2020-Aug-09 16:05 315 29.4
2020-Aug-09 15:45 328 30.0
2020-Aug-09 15:25 310 29.4
2020-Aug-09 15:20 290 30.6
2020-Aug-09 15:10 296 29.4
2020-Aug-09 15:05 299 28.9
2020-Aug-09 14:50 304 28.3
2020-Aug-09 14:45 310 0 gusting 4 28.3
2020-Aug-09 14:35 127 29.4
2020-Aug-09 14:30 349 28.9
2020-Aug-09 14:25 319 0 gusting 3 27.8
2020-Aug-09 14:15 308 0 gusting 3 27.8
2020-Aug-09 14:10 313 0 gusting 3 27.8
2020-Aug-09 14:00 018 28.9
2020-Aug-09 13:55 304 28.3
2020-Aug-09 13:50 305 28.3
2020-Aug-09 13:35 316 0 gusting 2 27.8
2020-Aug-09 13:30 313 0 gusting 3 27.8
2020-Aug-09 13:20 317 28.9
2020-Aug-09 13:05 007 28.9